#timestamp,LO_Frequency,Hit,StdDev 
1550869215.9,286047013.6,N
1550869235.7,286047013.5,N
1550869255.6,286047011.3,N
1550869275.4,286047008.6,N
1550869295.2,286047001.3,N
1550869315.1,286047002.9,N
1550869316.0,286047002.9,N
1550869335.8,286046995.2,N
1550869355.7,286046994.5,N
1550869375.5,286046995.0,N
1550869395.3,286046996.8,N
1550869415.2,286047002.9,N
1550869435.0,286047000.3,N
1550869435.9,286047000.3,N
1550869455.8,286047009.5,N
1550869475.6,286047005.0,N
1550869495.4,286047008.7,N
1550869515.3,286047006.9,N
1550869535.1,286047000.0,N
1550869555.9,286046997.4,N
1550869575.7,286047005.3,N
1550869595.5,286047010.9,N
1550869615.4,286047004.8,N
1550869635.2,286047002.4,N
1550869655.0,286047001.0,N
1550869655.9,286047001.0,N
1550869675.8,286047000.9,N
1550869695.6,286047004.4,N
1550869715.5,286047012.4,N
1550869735.3,286047013.5,N
1550869755.2,286047024.4,Y
1550869775.9,286047018.4,P
1550869795.7,286047018.6,N
1550869815.6,286047015.1,N
1550869835.4,286047012.3,N
1550869855.3,286047013.2,N
1550869875.1,286047014.2,N
1550869876.0,286047014.2,Y
1550869895.8,286047001.7,P
1550869915.7,286047015.3,N
1550869935.5,286047009.1,N
1550869955.3,286047013.6,N
1550869975.2,286047011.9,N
1550869995.0,286047014.5,Y
1550869995.9,286047014.5,P
1550870015.8,286047002.7,N
1550870035.6,286047000.7,N
1550870055.4,286047002.4,N
1550870075.3,286046999.5,N
1550870095.1,286046999.3,N
1550870115.9,286047007.0,N
1550870135.7,286047012.8,N
1550870155.5,286047015.7,N
1550870175.4,286047014.7,N
1550870195.2,286047014.7,N
1550870215.0,286047012.8,N
1550870216.0,286047012.8,N
1550870235.8,286047011.8,N
1550870255.6,286047010.8,N
1550870275.5,286047007.1,N
1550870295.3,286047009.6,N
1550870315.1,286047023.2,Y
1550870335.9,286047003.8,P
1550870355.7,286046993.5,N
1550870375.6,286046988.6,N
1550870395.4,286046997.8,N
1550870415.2,286047004.4,N
1550870435.1,286046998.0,N
1550870436.0,286046998.0,N
1550870455.8,286046985.8,N
1550870475.7,286046983.3,N
1550870495.5,286046982.9,N
1550870515.3,286046989.8,N
1550870535.2,286046997.1,N
1550870555.0,286047009.0,N
1550870555.9,286047009.0,N
1550870575.8,286047000.5,N
1550870595.6,286047001.4,N
1550870615.4,286046996.9,N
1550870635.3,286046994.4,N
1550870655.1,286046993.6,N
1550870675.8,286047001.1,N
1550870695.7,286047004.0,N
1550870715.5,286047007.6,N
1550870735.4,286047005.5,N
1550870755.2,286047011.9,N
1550870775.0,286047005.5,N
1550870775.9,286047005.5,N
1550870795.8,286047009.6,N
1550870815.6,286047018.2,N
1550870835.5,286047014.9,N
1550870855.3,286047010.4,N
1550870875.1,286047014.6,N
1550870895.9,286047014.2,N
1550870915.7,286047015.8,N
1550870935.5,286047011.9,N
1550870955.4,286047007.8,N
1550870975.2,286047010.1,N
1550870995.1,286047014.7,N
1550870996.0,286047014.7,N
1550871015.8,286047017.0,N
1550871035.6,286047019.6,N
1550871055.5,286047017.3,N
1550871075.3,286047015.6,N
1550871095.2,286047014.7,N
1550871115.9,286047015.2,N
1550871135.7,286047018.9,N
1550871155.6,286047016.3,N
1550871175.4,286047005.3,N
1550871195.2,286047002.6,N
1550871215.1,286047000.1,N
1550871216.0,286047000.1,N
1550871235.8,286046999.4,N
1550871255.7,286046997.7,N
1550871275.5,286046993.8,N
1550871295.3,286046992.1,N
1550871315.2,286046998.8,N
1550871335.0,286046994.6,N
1550871335.9,286046994.6,N
1550871355.8,286046990.2,N
1550871375.6,286046992.9,N
1550871395.4,286046990.5,N
1550871415.3,286046988.5,N
1550871435.1,286046986.9,N
1550871455.8,286046989.2,N
1550871475.7,286046991.1,N
1550871495.5,286046991.1,N
1550871515.4,286046987.7,N
1550871535.2,286046983.9,N
1550871555.0,286046986.5,N
1550871555.9,286046986.5,N
1550871575.8,286046984.0,N
1550871595.6,286046989.1,N
1550871615.5,286046990.7,N
1550871635.3,286046992.4,N
1550871655.1,286046994.6,N
1550871675.9,286046994.1,N
1550871695.7,286046999.8,N
1550871715.6,286046998.7,N
1550871735.4,286046998.1,N
1550871755.2,286047004.1,N
1550871775.1,286047004.5,N
1550871776.0,286047004.5,N
1550871795.8,286047005.2,N
1550871815.7,286047005.2,N
1550871835.5,286047004.9,N
1550871855.4,286047011.8,N
1550871875.2,286047008.5,N
1550871895.0,286047008.6,N
1550871895.9,286047008.6,N
1550871915.8,286047009.4,N
1550871935.6,286047010.0,N
1550871955.5,286047014.4,N
1550871975.3,286047015.4,N
1550871995.1,286047014.7,N
1550872015.9,286047014.7,N
1550872035.7,286047014.2,N
1550872055.6,286047016.3,N
1550872075.4,286047020.3,N
1550872095.2,286047018.5,N
1550872115.1,286047015.7,N
1550872116.0,286047015.7,N
1550872135.8,286047027.5,Y
1550872155.7,286047022.7,P
1550872175.5,286047017.8,N
1550872195.3,286047028.2,P
1550872215.2,286047031.3,Y
1550872235.0,286047009.9,P
1550872235.9,286047009.9,N
1550872255.7,286047013.4,P
1550872275.6,286047008.6,N
1550872295.4,286047006.4,N
1550872315.3,286047007.3,N
1550872335.1,286047009.5,N
1550872355.8,286047006.2,N
1550872375.7,286047007.2,N
1550872395.5,286047012.7,Y
1550872415.4,286047001.7,P
1550872435.2,286047006.6,N
1550872455.0,286047006.0,N
1550872455.9,286047006.0,N
1550872475.8,286046998.8,N
1550872495.6,286046994.6,N
1550872515.4,286046989.4,N
1550872535.3,286046990.7,N
1550872555.1,286046989.3,N
1550872575.9,286046989.4,N
1550872595.7,286046990.7,N
1550872615.5,286046994.3,N
1550872635.4,286046990.4,N
1550872655.2,286046987.6,N
1550872675.1,286046989.4,N
1550872676.0,286046989.4,N
1550872695.8,286046993.7,N
1550872715.6,286046993.6,N
1550872735.5,286046992.9,N
1550872755.3,286046988.7,N
1550872775.1,286046987.2,N
1550872795.9,286046987.9,N
